BEIDOU-2 G6

Last updated on Mon Oct 14 2024 00:02:39 GMT+0000 (Coordinated Universal Time)

1 38953U 12059A 24287.56602836 -.00000175 00000+0 00000+0 0 9996 2 38953 2.8573 79.5144 0006382 304.0246 286.8897 1.00273434 43776
UTC large
Height (km)
Speed (km/s)
/
Latitude / Longitude
Inclination (degrees)
Orbital Period (minutes)
Azimuth
Elevation
Range (km)
Doppler Factor

Next 0 passes for location: London (51.5072 / 0.1276)

Sorry there are no passes over London.